• In Germany
  • List of Countries
  • For 7 days
  • Water Temperature
  • Satellite Maps
  • Weather Map
  • Weather Widgets
  • user-avatar
    Login

    Hourly Weather Graz

    Today, 20 September, Thursday

    Time Temperature Precipitation Wind Pressure Humidity
    00:00 +18°C° 0 mm 1 mps 728 mmHg 88%
    01:00 +16°C° 0 mm 1 mps 728 mmHg 88%
    02:00 +16°C° 0 mm 1 mps 728 mmHg 89%
    03:00 +16°C° 0 mm 1 mps 728 mmHg 89%
    04:00 +16°C° 0 mm 1 mps 728 mmHg 89%
    05:00 +16°C° 0 mm 1 mps 728 mmHg 88%
    06:00 +18°C° 0 mm 1 mps 728 mmHg 86%
    07:00 +18°C° 0 mm 1 mps 728 mmHg 85%
    08:00 +21°C° 0 mm 1 mps 729 mmHg 75%
    09:00 +24°C° 0 mm 1 mps 729 mmHg 66%
    10:00 +24°C° 0 mm 0 mps 729 mmHg 56%
    11:00 +27°C° 0 mm 1 mps 729 mmHg 54%
    12:00 +28°C° 0 mm 1 mps 728 mmHg 51%
    13:00 +28°C° 0 mm 1 mps 728 mmHg 48%
    14:00 +28°C° 0.3 mm 1 mps 728 mmHg 51%
    15:00 +27°C° 0.3 mm 1 mps 727 mmHg 55%
    16:00 +26°C° 0.3 mm 1 mps 727 mmHg 58%
    17:00 +24°C° 0.1 mm 1 mps 727 mmHg 65%
    18:00 +20°C° 0.1 mm 0 mps 727 mmHg 72%
    19:00 +18°C° 0.1 mm 0 mps 727 mmHg 79%
    20:00 +17°C° 0 mm 0 mps 727 mmHg 80%
    21:00 +19°C° 0 mm 1 mps 727 mmHg 82%
    22:00 +18°C° 0 mm 1 mps 727 mmHg 83%
    23:00 +18°C° 0 mm 1 mps 726 mmHg 84%

    Tomorrow, 21 September, Friday

    Time Temperature Precipitation Wind Pressure Humidity
    00:00 +18°C° 0 mm 1 mps 726 mmHg 86%
    01:00 +16°C° 0 mm 1 mps 726 mmHg 87%
    02:00 +16°C° 0 mm 1 mps 726 mmHg 87%
    03:00 +16°C° 0 mm 1 mps 725 mmHg 88%
    04:00 +16°C° 0 mm 1 mps 725 mmHg 89%
    05:00 +16°C° 0 mm 1 mps 725 mmHg 87%
    06:00 +18°C° 0 mm 1 mps 725 mmHg 86%
    07:00 +18°C° 0 mm 1 mps 725 mmHg 84%
    08:00 +21°C° 0 mm 1 mps 725 mmHg 75%
    09:00 +23°C° 0 mm 1 mps 725 mmHg 65%
    10:00 +26°C° 0 mm 1 mps 725 mmHg 55%
    11:00 +27°C° 0 mm 2 mps 725 mmHg 51%
    12:00 +28°C° 0 mm 2 mps 725 mmHg 48%
    13:00 +29°C° 0 mm 2 mps 725 mmHg 44%
    14:00 +29°C° 0 mm 2 mps 724 mmHg 46%
    15:00 +28°C° 0 mm 1 mps 724 mmHg 47%
    16:00 +28°C° 0 mm 1 mps 724 mmHg 49%
    17:00 +26°C° 0 mm 1 mps 724 mmHg 58%
    18:00 +23°C° 0 mm 1 mps 724 mmHg 67%
    19:00 +19°C° 0 mm 0 mps 724 mmHg 75%
    20:00 +20°C° 0.1 mm 1 mps 725 mmHg 77%
    21:00 +20°C° 0.1 mm 1 mps 725 mmHg 79%
    22:00 +19°C° 0.1 mm 1 mps 725 mmHg 81%
    23:00 +19°C° 0.1 mm 1 mps 725 mmHg 82%

    Day after tomorrow, 22 September, Saturday

    Time Temperature Precipitation Wind Pressure Humidity
    00:00 +19°C° 0.1 mm 1 mps 725 mmHg 83%
    01:00 +19°C° 0.1 mm 1 mps 726 mmHg 84%
    02:00 +18°C° 0 mm 1 mps 726 mmHg 85%
    03:00 +18°C° 0 mm 1 mps 726 mmHg 87%
    04:00 +18°C° 0 mm 1 mps 726 mmHg 88%
    05:00 +18°C° 0.1 mm 1 mps 726 mmHg 88%
    06:00 +19°C° 0.1 mm 1 mps 727 mmHg 87%
    07:00 +19°C° 0.1 mm 1 mps 727 mmHg 86%
    08:00 +19°C° 0.3 mm 1 mps 728 mmHg 85%
    09:00 +18°C° 0.3 mm 2 mps 728 mmHg 84%
    10:00 +19°C° 0.3 mm 2 mps 729 mmHg 83%
    11:00 +17°C° 0.6 mm 2 mps 729 mmHg 84%
    12:00 +16°C° 0.6 mm 2 mps 729 mmHg 85%
    13:00 +15°C° 0.6 mm 2 mps 729 mmHg 86%
    14:00 +14°C° 0.4 mm 2 mps 728 mmHg 86%
    15:00 +14°C° 0.4 mm 1 mps 728 mmHg 86%
    16:00 +13°C° 0.4 mm 1 mps 728 mmHg 86%
    17:00 +13°C° 0.3 mm 1 mps 729 mmHg 88%
    18:00 +13°C° 0.3 mm 1 mps 729 mmHg 89%
    19:00 +13°C° 0.3 mm 1 mps 729 mmHg 91%
    20:00 +12°C° 0.2 mm 1 mps 730 mmHg 91%
    21:00 +12°C° 0.2 mm 1 mps 730 mmHg 92%
    22:00 +12°C° 0.2 mm 1 mps 730 mmHg 92%
    23:00 +11°C° 0 mm 0 mps 730 mmHg 92%

    23 September, Sunday

    Time Temperature Precipitation Wind Pressure Humidity
    00:00 +11°C° 0 mm 0 mps 730 mmHg 92%
    01:00 +11°C° 0 mm 0 mps 729 mmHg 92%
    02:00 +11°C° 0 mm 0 mps 729 mmHg 92%
    03:00 +11°C° 0 mm 0 mps 729 mmHg 92%
    04:00 +11°C° 0 mm 0 mps 729 mmHg 92%
    05:00 +11°C° 0 mm 0 mps 729 mmHg 91%
    06:00 +12°C° 0 mm 1 mps 728 mmHg 91%
    07:00 +12°C° 0 mm 1 mps 728 mmHg 90%
    08:00 +14°C° 0 mm 1 mps 728 mmHg 84%
    09:00 +15°C° 0 mm 1 mps 728 mmHg 79%
    10:00 +16°C° 0 mm 1 mps 729 mmHg 73%
    11:00 +19°C° 0 mm 1 mps 728 mmHg 68%
    12:00 +20°C° 0 mm 1 mps 727 mmHg 64%
    13:00 +21°C° 0 mm 2 mps 727 mmHg 59%
    14:00 +21°C° 0 mm 2 mps 726 mmHg 60%
    15:00 +21°C° 0 mm 2 mps 725 mmHg 61%
    16:00 +23°C° 0 mm 2 mps 724 mmHg 61%
    17:00 +20°C° 0 mm 2 mps 724 mmHg 69%
    18:00 +18°C° 0 mm 2 mps 723 mmHg 78%
    19:00 +16°C° 0 mm 1 mps 722 mmHg 86%
    20:00 +16°C° 0 mm 1 mps 721 mmHg 87%
    21:00 +16°C° 0 mm 2 mps 721 mmHg 89%
    22:00 +16°C° 0 mm 2 mps 720 mmHg 91%
    23:00 +16°C° 0 mm 2 mps 718 mmHg 91%

    24 September, Monday

    Time Temperature Precipitation Wind Pressure Humidity
    00:00 +16°C° 0 mm 2 mps 717 mmHg 92%
    01:00 +17°C° 0 mm 3 mps 715 mmHg 92%
    02:00 +17°C° 0.6 mm 3 mps 716 mmHg 92%
    03:00 +17°C° 0.6 mm 4 mps 716 mmHg 91%
    04:00 +17°C° 0.6 mm 4 mps 716 mmHg 91%
    05:00 +14°C° 5 mm 4 mps 717 mmHg 89%
    06:00 +12°C° 5 mm 5 mps 717 mmHg 87%
    07:00 +10°C° 5 mm 5 mps 718 mmHg 84%
    08:00 +11°C° 0.1 mm 7 mps 719 mmHg 73%
    09:00 +12°C° 0.1 mm 8 mps 721 mmHg 62%
    10:00 +14°C° 0.1 mm 10 mps 722 mmHg 51%
    11:00 +15°C° 0 mm 9 mps 723 mmHg 49%
    12:00 +15°C° 0 mm 9 mps 724 mmHg 46%
    13:00 +15°C° 0 mm 8 mps 725 mmHg 44%
    14:00 +15°C° 0 mm 7 mps 725 mmHg 46%
    15:00 +14°C° 0 mm 7 mps 726 mmHg 49%
    16:00 +13°C° 0 mm 6 mps 727 mmHg 51%
    17:00 +12°C° 0 mm 5 mps 727 mmHg 56%
    18:00 +10°C° 0 mm 4 mps 728 mmHg 62%
    19:00 +9°C° 0 mm 3 mps 728 mmHg 67%
    20:00 +9°C° 0 mm 3 mps 729 mmHg 69%
    21:00 +8°C° 0 mm 3 mps 729 mmHg 71%
    22:00 +7°C° 0 mm 3 mps 730 mmHg 73%
    23:00 +7°C° 0 mm 2 mps 730 mmHg 74%

    25 September, Tuesday

    Time Temperature Precipitation Wind Pressure Humidity
    00:00 +7°C° 0 mm 2 mps 731 mmHg 75%
    01:00 +7°C° 0 mm 2 mps 731 mmHg 75%
    02:00 +6°C° 0 mm 2 mps 731 mmHg 76%
    03:00 +6°C° 0 mm 2 mps 732 mmHg 76%
    04:00 +6°C° 0 mm 2 mps 732 mmHg 77%
    05:00 +6°C° 0 mm 2 mps 732 mmHg 75%
    06:00 +6°C° 0 mm 2 mps 733 mmHg 73%
    07:00 +5°C° 0 mm 3 mps 733 mmHg 71%
    08:00 +8°C° 0 mm 3 mps 733 mmHg 62%
    09:00 +10°C° 0 mm 4 mps 733 mmHg 53%
    10:00 +12°C° 0 mm 5 mps 733 mmHg 44%
    11:00 +11°C° 0.1 mm 6 mps 733 mmHg 45%
    12:00 +11°C° 0.1 mm 6 mps 733 mmHg 46%
    13:00 +13°C° 0.1 mm 6 mps 733 mmHg 47%
    14:00 +11°C° 0.1 mm 6 mps 733 mmHg 50%
    15:00 +12°C° 0.1 mm 5 mps 733 mmHg 52%
    16:00 +10°C° 0.1 mm 5 mps 733 mmHg 55%
    17:00 +10°C° 0.1 mm 4 mps 733 mmHg 62%
    18:00 +9°C° 0.1 mm 3 mps 734 mmHg 68%
    19:00 +7°C° 0.1 mm 2 mps 734 mmHg 75%
    20:00 +7°C° 0.1 mm 2 mps 734 mmHg 78%
    21:00 +7°C° 0.1 mm 2 mps 735 mmHg 81%
    22:00 +6°C° 0.1 mm 2 mps 735 mmHg 84%
    23:00 +6°C° 0 mm 2 mps 735 mmHg 85%
    Show more